{"data":{"norad_id":39741,"intl_designator":"2014-026A","name":"GPS BIIF-6  (PRN 06)","alt_names":[],"object_type":"PAYLOAD","status":"ACTIVE","operator":null,"country":"US","launch_date":"2014-05-17","launch_site_code":"AFETR","launch_vehicle":null,"mission":null,"orbit_class":"UNKNOWN","rcs_meters":20.5188,"size_class":null,"mass_kg":null,"dimensions":null,"purposes":["earth_obs","nav"],"wikipedia_slug":null,"has_3d_model":false,"image_url":null,"decayed_at":null,"tle_current":{"epoch":"2026-05-25T00:38:27.570336Z","epoch_age_seconds":75836,"freshness":"FRESH","line1":"1 39741U 14026A   26145.02670799 -.00000084  00000+0  00000+0 0  9996","line2":"2 39741  56.5094 332.4188 0038427 326.8937  32.8784  2.00562731 88077","mean_motion":2.00562731,"eccentricity":0.0038427,"inclination_deg":56.5094,"raan_deg":332.4188,"arg_perigee_deg":326.8937,"mean_anomaly_deg":32.8784,"bstar":0,"rev_number":8807,"period_min":717.9798523984,"perigee_km":20080.224146515,"apogee_km":20284.351635974,"semimajor_km":26560.424891244,"source":"CELESTRAK","updated_at":"2026-05-25T13:38:23.732041Z"}}}